{"data":{"norad_id":64151,"intl_designator":"2025-112F","name":"STARLINK-34338","alt_names":[],"object_type":"PAYLOAD","status":"ACTIVE","operator":null,"country":"US","launch_date":"2025-05-27","launch_site_code":"AFWTR","launch_vehicle":null,"mission":null,"orbit_class":"UNKNOWN","rcs_meters":null,"size_class":null,"mass_kg":null,"dimensions":null,"purposes":["comms"],"wikipedia_slug":null,"has_3d_model":false,"image_url":null,"decayed_at":null,"tle_current":{"epoch":"2026-05-25T02:54:07.194240Z","epoch_age_seconds":71350,"freshness":"FRESH","line1":"1 64151U 25112F   26145.12091660  .00002677  00000+0  18949-3 0  9996","line2":"2 64151  97.4488 196.5584 0001727 146.2528 213.8809 15.05658746 54818","mean_motion":15.05658746,"eccentricity":0.0001727,"inclination_deg":97.4488,"raan_deg":196.5584,"arg_perigee_deg":146.2528,"mean_anomaly_deg":213.8809,"bstar":0.00018949,"rev_number":5481,"period_min":95.639201367878,"perigee_km":548.28792647795,"apogee_km":550.68072688418,"semimajor_km":6927.6213266811,"source":"CELESTRAK","updated_at":"2026-05-25T13:38:20.302774Z"}}}